{"data":{"norad_id":67442,"intl_designator":"2026-007H","name":"HULIANWANG DIGUI-144","alt_names":[],"object_type":"PAYLOAD","status":"ACTIVE","operator":null,"country":"PRC","launch_date":"2026-01-13","launch_site_code":"WSC","launch_vehicle":null,"mission":null,"orbit_class":"UNKNOWN","rcs_meters":null,"size_class":null,"mass_kg":null,"dimensions":null,"purposes":[],"wikipedia_slug":null,"has_3d_model":false,"image_url":null,"decayed_at":null,"tle_current":{"epoch":"2026-09-19T23:58:03.458496Z","epoch_age_seconds":139956,"freshness":"FRESH","line1":"1 67442U 26007H   26262.99865114 -.00000103  00000+0  45849-4 0  9997","line2":"2 67442  50.0078 105.5658 0000456  27.5194 332.5702 13.29330080 33409","mean_motion":13.2933008,"eccentricity":4.56e-5,"inclination_deg":50.0078,"raan_deg":105.5658,"arg_perigee_deg":27.5194,"mean_anomaly_deg":332.5702,"bstar":4.5849e-5,"rev_number":3340,"period_min":108.32524003369,"perigee_km":1148.9479188922,"apogee_km":1149.6344203413,"semimajor_km":7527.4281696167,"source":"CELESTRAK","updated_at":"2026-09-21T09:00:16.634626Z"}}}